Fort Polk, LA

7:41 PM CDT on September 25, 2017 (GMT -0500)
Polk Army Air Field

Weather History for KPOE - July, 2013

Change the Weather History Date:

Wednesday, July 3, 2013

  Actual Average Record
Temperature  
Mean Temperature 79 °F -  
Max Temperature 90 °F 88 °F 99 °F (2011)
Min Temperature 68 °F 71 °F 68 °F (2005)
Cooling Degree Days 14    
Growing Degree Days 29 (Base 50)    
Moisture  
Dew Point 61 °F    
Average Humidity 57    
Maximum Humidity 81    
Minimum Humidity 34    
Precipitation  
Precipitation 0.00 in - - ()
Sea Level Pressure  
Sea Level Pressure 30.01 in    
Wind  
Wind Speed 4 mph (NE)    
Max Wind Speed 9 mph    
Max Gust Speed -    
Visibility 10 miles    
Events      
Averages and records for this station are not official NWS values.
T = Trace of Precipitation, MM = Missing Value Source: NWS Daily Summary

Daily Weather History Graph

Daily Weather History Graph

Search for Another Location

Airport or City:

Trip Planner

Search our weather history database for the weather conditions in past years. The results will help you decide how hot, cold, wet, or windy it might be!

Date:

Astronomy

Jul. 03, 2013 Rise Set
Actual Time 6:13 AM CDT 8:20 PM CDT
Civil Twilight 5:45 AM CDT 8:48 PM CDT
Nautical Twilight 5:12 AM CDT 9:21 PM CDT
Astronomical Twilight 4:36 AM CDT 9:57 PM CDT
Moon 2:44 AM CDT (7/3) 4:37 PM CDT (7/3)
Length of Visible Light 15h 02m
Length of Day
14h 06m
Waning Crescent, 18% of the Moon is Illuminated
Jul 3
Waning Crescent
Jul 8
New
Jul 15
First Quarter
Jul 22
Full
Jul 29
Last Quarter

Hourly Weather History & Observations

Time (CDT) Temp. Heat Index Dew Point Humidity Pressure Visibility Wind Dir Wind Speed Gust Speed Precip Events Conditions
12:55 AM 71.1 °F - 63.0 °F 75% 30.02 in 10.0 mi NE 3.5 mph - N/A   Clear
1:55 AM 70.0 °F - 63.0 °F 78% 30.02 in 10.0 mi NNE 4.6 mph - N/A   Clear
2:55 AM 70.0 °F - 63.0 °F 78% 30.01 in 10.0 mi NE 3.5 mph - N/A   Scattered Clouds
3:55 AM 70.0 °F - 62.1 °F 76% 30.02 in 10.0 mi Calm Calm - N/A   Clear
4:55 AM 69.1 °F - 62.1 °F 78% 30.01 in 10.0 mi Calm Calm - N/A   Clear
5:55 AM 68.0 °F - 62.1 °F 81% 30.01 in 10.0 mi Calm Calm - N/A   Clear
6:55 AM 68.0 °F - 62.1 °F 81% 30.01 in 10.0 mi Calm Calm - N/A   Clear
7:55 AM 73.0 °F - 63.0 °F 71% 30.04 in 10.0 mi NE 3.5 mph - N/A   Clear
8:55 AM 79.0 °F - 64.0 °F 60% 30.05 in 10.0 mi ENE 5.8 mph - N/A   Clear
9:55 AM 82.0 °F 83.1 °F 63.0 °F 52% 30.06 in 10.0 mi East 5.8 mph - N/A   Clear
10:55 AM 84.0 °F 84.5 °F 62.1 °F 47% 30.06 in 10.0 mi East 6.9 mph - N/A   Clear
11:55 AM 86.0 °F 86.1 °F 61.0 °F 43% 30.04 in 10.0 mi ENE 8.1 mph - N/A   Clear
12:55 PM 88.0 °F 87.9 °F 61.0 °F 40% 30.04 in 10.0 mi NNE 9.2 mph - N/A   Clear
1:55 PM 89.1 °F 88.2 °F 59.0 °F 36% 30.01 in 10.0 mi Variable 6.9 mph - N/A   Clear
2:55 PM 90.0 °F 88.8 °F 57.9 °F 34% 30.00 in 10.0 mi East 6.9 mph - N/A   Clear
3:55 PM 89.1 °F 87.7 °F 57.0 °F 34% 29.98 in 10.0 mi NE 5.8 mph - N/A   Clear
4:55 PM 89.1 °F 88.0 °F 57.9 °F 35% 29.97 in 10.0 mi NE 8.1 mph - N/A   Clear
5:55 PM 87.1 °F 86.7 °F 60.1 °F 40% 29.96 in 10.0 mi NE 6.9 mph - N/A   Mostly Cloudy
6:55 PM 87.1 °F 87.0 °F 61.0 °F 41% 29.96 in 10.0 mi ENE 4.6 mph - N/A   Partly Cloudy
7:55 PM 82.0 °F 83.0 °F 62.1 °F 51% 29.96 in 10.0 mi NE 3.5 mph - N/A   Partly Cloudy
8:55 PM 79.0 °F - 63.0 °F 58% 29.97 in 10.0 mi Calm Calm - N/A   Clear
9:55 PM 77.0 °F - 62.1 °F 60% 29.99 in 10.0 mi NNE 4.6 mph - N/A   Clear
10:55 PM 75.9 °F - 61.0 °F 60% 30.00 in 10.0 mi ENE 3.5 mph - N/A   Clear
11:55 PM 73.9 °F - 62.1 °F 66% 30.00 in 10.0 mi East 3.5 mph - N/A   Clear